Home   Weather   Volos   Past weeks

Flag for Greece Past Weather in Volos, Greece — Yesterday and Last 2 Weeks

Now
34 °F

Passing clouds.


Feels Like: 30 °F
Forecast: 38 / 40 °F
Wind: 5 mph from Southeast

Location: Thessaloniki Airport

Current Time: Jan 24, 2017 at 1:10:28 am

Latest Report: Jan 24, 2017 at 12:20 am


Visibility: N/A

Pressure: 30.24 "Hg

Humidity: 87%

Dew Point: 30 °F

Location of VolosLocation

Past Weather in Volos — Graph

°F

Volos Temperature Yesterday

Maximum temperature yesterday: 45 °F (at 2:20 pm)
Minimum temperature yesterday: 28 °F (at 3:50 am)
Average temperature yesterday: 36 °F

High & Low Weather Summary for the Past Weeks

 TemperatureHumidityPressure
High50 °F (Jan 15, 2:50 pm)100% (Jan 10, 1:50 pm)30.54 "Hg (Jan 10, 1:50 pm)
Low14 °F (Jan 11, 1:50 am)36% (Jan 8, 11:20 pm)29.65 "Hg (Jan 14, 6:50 am)
Average35 °F80%30.14 "Hg
* Reported Jan 8 11:20 pm — Jan 23 11:50 pm, Volos, Weather by CustomWeather, © 2017

Note: Actual official high and low records may vary slightly from our data, if they occured in-between our weather recording intervals... More about our weather records

Advertising

Volos Weather History for the Previous 24 Hours

Scroll right to see more
 ConditionsComfort  
Time TempWeatherWind HumidityBarometerVisibility
11:50 pm
Mon, Jan 23
36 °FPassing clouds.2 mph81%30.24 "HgN/A
11:20 pm34 °FPassing clouds.6 mph93%30.27 "HgN/A
10:50 pm34 °FPassing clouds.3 mph93%30.27 "HgN/A
10:20 pm34 °FPassing clouds.3 mph93%30.27 "HgN/A
9:50 pm34 °FPassing clouds.3 mph93%30.27 "HgN/A
9:20 pm34 °FPassing clouds.5 mph93%30.27 "HgN/A
8:50 pm34 °FPassing clouds.6 mph93%30.27 "HgN/A
8:20 pm34 °FPassing clouds.6 mph87%30.27 "HgN/A
7:50 pm36 °FPassing clouds.3 mph87%30.30 "HgN/A
7:20 pm37 °FPassing clouds.3 mph75%30.30 "HgN/A
6:50 pm41 °FPassing clouds.3 mph70%30.30 "HgN/A
6:20 pm41 °FPassing clouds.6 mph76%30.30 "HgN/A
5:50 pm41 °FPassing clouds.9 mph76%30.30 "HgN/A
5:20 pm43 °FScattered clouds.7 mph66%30.30 "HgN/A
4:50 pm45 °FScattered clouds.8 mph66%30.33 "HgN/A
4:20 pm45 °FScattered clouds.9 mph66%30.30 "HgN/A
3:50 pm45 °FScattered clouds.9 mph61%30.30 "HgN/A
3:20 pm45 °FScattered clouds.6 mph61%30.33 "HgN/A
2:50 pm45 °FScattered clouds.7 mph66%30.33 "HgN/A
2:20 pm45 °FScattered clouds.8 mph61%30.36 "HgN/A
1:50 pm43 °FFog.8 mph66%30.36 "Hg5 mi
1:20 pm43 °FFog.9 mph71%30.39 "Hg5 mi
12:50 pm43 °FFog.7 mph71%30.39 "Hg5 mi
12:20 pm43 °FFog.6 mph71%30.39 "Hg4 mi
11:20 am41 °FFog.5 mph76%30.42 "Hg4 mi
10:50 am41 °FScattered clouds.3 mph81%30.42 "Hg4 mi
10:20 am39 °FSnow. Fog.2 mph87%30.42 "Hg5 mi
9:50 am36 °FFog.3 mph87%30.42 "Hg5 mi
9:20 am32 °FScattered clouds.No wind93%30.42 "Hg5 mi
8:50 am30 °FScattered clouds.2 mph100%30.45 "Hg6 mi
8:20 am32 °FScattered clouds.1 mph93%30.45 "HgN/A
7:50 am28 °FScattered clouds.2 mph100%30.45 "HgN/A
7:20 am28 °FPassing clouds.No wind100%30.45 "HgN/A
6:50 am28 °FPassing clouds.No wind93%30.45 "HgN/A
6:20 am28 °FPassing clouds.5 mph93%30.45 "HgN/A
5:50 am28 °FPassing clouds.3 mph100%30.45 "HgN/A
5:20 am28 °FPassing clouds.5 mph100%30.45 "HgN/A
4:50 am28 °FPassing clouds.5 mph93%30.45 "HgN/A
4:20 am30 °FPassing clouds.5 mph93%30.45 "HgN/A
3:50 am28 °FPassing clouds.3 mph93%30.45 "HgN/A
3:20 am30 °FPassing clouds.No wind93%30.45 "HgN/A
2:50 am32 °FPassing clouds.3 mph93%30.45 "HgN/A
2:20 am30 °FPassing clouds.No wind93%30.48 "HgN/A
1:50 am32 °FPassing clouds.3 mph87%30.48 "HgN/A
1:20 am32 °FPassing clouds.2 mph93%30.48 "HgN/A
Weather by CustomWeather, © 2017

See weather overviewHow to use our weather pages